Lid_Strength_Index
11 13 16 14 13 13 14 15 15 13 12 13 15 16 16 15 15 14 14 13 12 11 10 10 11 11 10 10 10 10 9 9 8 8 8 7 7 7 6 6 6 6 5 4
13 15 13 12 12 13 14 15 15 13 12 13 16 17 16 16 16 15 14 13 12 11 11 11 12 12 11 11 12 11 11 10 9 8 8 7 7 6 7 6 5 5 5 4
14 13 12 13 14 14 15 16 15 15 15 14 15 17 17 16 15 15 14 14 12 14 12 12 12 13 13 12 12 13 12 11 10 9 7 7 7 6 6 6 6 6 6 7
13 12 12 14 14 14 17 14 13 14 15 19 15 19 18 18 17 16 16 15 15 13 13 13 13 14 13 14 13 13 13 12 11 10 7 7 8 8 8 8 8 8 8 8
14 13 14 14 14 13 15 13 14 14 15 16 18 20 18 17 18 17 16 16 16 16 14 15 14 14 14 14 14 14 13 13 12 12 10 10 10 10 10 10 10 9 9 9
13 12 12 13 12 12 12 13 14 14 15 19 18 18 19 19 17 17 16 17 16 16 16 16 15 15 15 15 15 15 14 14 13 12 12 12 12 12 12 12 12 11 11 10
14 14 13 12 13 12 12 15 20 22 20 21 18 19 16 16 16 16 17 17 17 17 17 16 16 16 17 17 16 15 15 16 15 15 15 14 14 14 14 13 13 13 13 12
17 18 14 12 13 14 14 15 19 23 23 21 18 20 18 17 16 15 15 17 18 18 18 18 18 18 18 18 17 17 17 17 17 17 17 16 16 15 15 15 15 15 14 13
17 16 13 13 13 12 14 16 14 18 21 21 19 18 18 18 18 18 18 18 19 19 19 19 18 18 19 19 18 18 17 18 18 17 17 16 16 16 16 16 15 15 15 14
13 16 14 13 12 13 13 12 17 16 21 22 20 19 18 19 19 19 19 19 19 18 18 19 19 20 19 19 19 18 18 19 18 18 17 17 17 17 17 17 17 16 16 15
13 14 16 13 15 15 14 16 15 15 17 20 22 19 17 16 16 18 18 18 19 19 19 19 19 20 20 20 19 19 19 19 19 18 18 18 18 18 18 18 17 16 16 16
13 14 17 16 14 14 15 14 15 17 20 19 19 19 17 17 16 16 18 18 18 18 19 19 20 20 21 21 20 20 20 19 19 19 19 19 19 18 18 18 18 17 18 17
12 18 21 17 15 16 16 15 14 16 17 19 20 19 17 17 17 17 18 18 18 19 20 21 21 21 21 20 20 20 20 20 20 19 19 19 19 19 19 19 19 18 19 19
9 14 15 17 16 15 16 15 15 14 17 17 18 18 19 19 19 18 18 18 19 20 20 21 21 21 21 20 20 20 20 20 19 19 19 20 20 20 20 20 20 20 19 19
11 16 16 15 14 14 14 13 14 15 14 17 15 18 16 17 18 18 18 18 19 20 20 21 21 21 21 21 21 21 21 20 20 20 20 21 20 20 20 20 20 20 19 19
12 18 17 19 14 14 16 14 13 13 13 14 18 18 17 16 17 18 18 18 19 19 19 20 20 21 21 21 21 19 20 21 21 21 21 21 21 21 21 21 20 20 19 19
13 16 18 19 16 15 17 15 14 14 13 13 16 13 16 18 17 17 18 18 18 19 19 20 20 19 19 19 20 21 21 21 21 22 22 21 21 21 21 20 20 20 19 18
13 13 15 18 16 20 16 16 14 13 13 12 15 14 15 16 15 15 16 17 17 18 18 19 20 20 19 20 20 21 21 22 22 22 22 21 21 21 21 20 20 19 19 19
10 12 15 17 18 17 15 17 16 15 15 13 12 14 15 16 17 18 15 15 16 17 18 18 18 19 20 21 21 21 22 22 22 22 22 22 21 21 20 20 20 19 19 18
12 11 14 17 18 20 16 16 15 13 16 13 13 15 16 15 17 17 16 15 16 17 17 19 19 20 21 21 21 22 23 23 23 23 22 21 20 21 21 20 19 19 18 18
15 14 16 16 17 18 16 16 14 17 16 14 13 14 16 15 13 12 14 15 16 18 19 19 20 21 21 21 21 22 22 23 22 21 21 21 20 20 20 20 19 19 19 18
15 15 16 16 17 19 16 16 14 14 16 15 15 14 15 17 16 15 15 16 18 20 20 20 20 20 20 20 21 22 22 22 21 22 22 22 21 20 20 20 20 19 19 19
17 13 15 14 15 18 14 16 17 16 16 16 16 15 15 17 17 17 18 18 19 20 20 19 20 20 20 20 20 21 21 22 22 23 23 23 22 20 20 20 20 20 20 20
18 20 16 15 15 16 15 16 16 16 15 15 15 15 16 17 18 18 19 19 20 19 20 19 20 20 20 20 20 20 22 22 24 24 24 23 23 22 22 20 20 20 21 21
17 18 18 18 18 17 17 16 15 15 15 15 16 16 17 17 18 18 18 19 19 19 19 19 19 20 20 20 21 22 23 24 24 24 23 22 22 22 22 21 21 21 20 20
17 16 16 15 16 14 14 13 13 14 15 16 17 18 17 17 18 17 18 18 18 19 19 19 19 20 21 21 22 24 24 24 24 23 23 23 23 24 23 23 23 20 18 18